| time (UTC) | temp F | wind direction | speed MPH | gust MPH | rain 1hr in | rain 24hr in | rain mn in | humidity % | barometer mb |
| 20260504082002 | 47 | 109 | 0.0 | 0.0 | 0.00 | 0.00 | 0.00 | 57 | 1019.2 |
| 20260504081503 | 47 | 109 | 0.0 | 0.0 | 0.00 | 0.00 | 0.00 | 58 | 1019.2 |
| 20260504080524 | 46 | 201 | 0.0 | 0.0 | 0.00 | 0.00 | 0.00 | 57 | 1019.4 |
| 20260504050503 | 49 | 37 | 0.0 | 0.0 | 0.00 | 0.00 | 0.00 | 51 | 1020.2 |
| 20260504050003 | 49 | 37 | 0.0 | 0.0 | 0.00 | 0.00 | 0.00 | 51 | 1020.1 |
| 20260504045503 | 49 | 37 | 0.0 | 0.0 | 0.00 | 0.00 | 0.00 | 51 | 1020.0 |
| 20260504045003 | 49 | 37 | 0.0 | 0.0 | 0.00 | 0.00 | 0.00 | 51 | 1020.0 |
| 20260504044503 | 49 | 207 | 0.0 | 0.0 | 0.00 | 0.00 | 0.00 | 51 | 1020.0 |
| 20260504044003 | 49 | 207 | 0.0 | 0.0 | 0.00 | 0.00 | 0.00 | 51 | 1020.0 |
| 20260504043503 | 49 | 175 | 0.0 | 1.0 | 0.00 | 0.00 | 0.00 | 52 | 1019.9 |
| 20260504043003 | 49 | 175 | 0.0 | 1.0 | 0.00 | 0.00 | 0.00 | 52 | 1020.0 |
| 20260504042503 | 49 | 332 | 0.0 | 2.0 | 0.00 | 0.00 | 0.00 | 51 | 1019.9 |
| 20260504042003 | 49 | 333 | 0.0 | 2.0 | 0.00 | 0.00 | 0.00 | 50 | 1019.9 |
| 20260504041524 | 49 | 69 | 0.0 | 1.0 | 0.00 | 0.00 | 0.00 | 50 | 1019.9 |
| 20260504041003 | 48 | 355 | 0.0 | 0.0 | 0.00 | 0.00 | 0.00 | 53 | 1019.8 |
| 20260504040524 | 48 | 56 | 0.0 | 0.0 | 0.00 | 0.00 | 0.00 | 52 | 1019.8 |
| 20260504040003 | 48 | 222 | 0.0 | 0.0 | 0.00 | 0.00 | 0.00 | 52 | 1020.0 |
| 20260504035503 | 48 | 261 | 0.0 | 0.0 | 0.00 | 0.00 | 0.00 | 52 | 1020.0 |
| 20260504035003 | 48 | 328 | 0.0 | 0.0 | 0.00 | 0.00 | 0.00 | 50 | 1020.0 |
| 20260504034503 | 48 | 309 | 0.0 | 0.0 | 0.00 | 0.00 | 0.00 | 51 | 1020.1 |
| 20260504034003 | 48 | 309 | 0.0 | 0.0 | 0.00 | 0.00 | 0.00 | 51 | 1020.2 |
| 20260504033504 | 48 | 309 | 0.0 | 0.0 | 0.00 | 0.00 | 0.00 | 50 | 1020.3 |
| 20260504033023 | 48 | 309 | 0.0 | 0.0 | 0.00 | 0.00 | 0.00 | 51 | 1020.2 |
| 20260504032503 | 47 | 309 | 0.0 | 0.0 | 0.00 | 0.00 | 0.00 | 50 | 1020.2 |
| 20260504032024 | 47 | 306 | 0.0 | 0.0 | 0.00 | 0.00 | 0.00 | 50 | 1020.1 |
| 20260504031503 | 47 | 302 | 0.0 | 0.0 | 0.00 | 0.00 | 0.00 | 50 | 1020.1 |
| 20260504031024 | 47 | 302 | 0.0 | 0.0 | 0.00 | 0.00 | 0.00 | 50 | 1020.1 |
| 20260504030524 | 47 | 302 | 0.0 | 0.0 | 0.00 | 0.00 | 0.00 | 50 | 1020.3 |
| 20260504030003 | 47 | 300 | 0.0 | 0.0 | 0.00 | 0.00 | 0.00 | 49 | 1020.3 |
| 20260504025524 | 47 | 178 | 0.0 | 0.0 | 0.00 | 0.00 | 0.00 | 50 | 1020.1 |
| 20260504025003 | 47 | 142 | 0.0 | 0.0 | 0.00 | 0.00 | 0.00 | 50 | 1020.2 |
| 20260504024503 | 46 | 142 | 0.0 | 0.0 | 0.00 | 0.00 | 0.00 | 51 | 1020.2 |
| 20260504024003 | 46 | 142 | 0.0 | 0.0 | 0.00 | 0.00 | 0.00 | 51 | 1020.3 |
| 20260504023503 | 46 | 142 | 0.0 | 0.0 | 0.00 | 0.00 | 0.00 | 52 | 1020.3 |
| 20260504023002 | 46 | 142 | 0.0 | 0.0 | 0.00 | 0.00 | 0.00 | 52 | 1020.3 |
| 20260504022503 | 46 | 142 | 0.0 | 2.0 | 0.00 | 0.00 | 0.00 | 53 | 1020.2 |
| 20260504022003 | 46 | 161 | 0.0 | 2.0 | 0.00 | 0.00 | 0.00 | 54 | 1020.3 |
| 20260504021503 | 46 | 161 | 0.0 | 0.0 | 0.00 | 0.00 | 0.00 | 55 | 1020.2 |
| 20260504021003 | 46 | 76 | 0.0 | 0.0 | 0.00 | 0.00 | 0.00 | 54 | 1020.1 |
| 20260504020524 | 47 | 76 | 0.0 | 0.0 | 0.00 | 0.00 | 0.00 | 53 | 1020.0 |
| 20260504020002 | 47 | 76 | 0.0 | 1.0 | 0.00 | 0.00 | 0.00 | 52 | 1019.9 |
| 20260504015002 | 46 | 76 | 0.0 | 1.0 | 0.00 | 0.00 | 0.00 | 51 | 1019.7 |
| 20260504014503 | 47 | 130 | 0.0 | 0.0 | 0.00 | 0.00 | 0.00 | 51 | 1019.7 |
| 20260504014003 | 47 | 128 | 0.0 | 0.0 | 0.00 | 0.00 | 0.00 | 52 | 1019.8 |
| 20260504013524 | 47 | 128 | 0.0 | 0.0 | 0.00 | 0.00 | 0.00 | 51 | 1019.7 |
| 20260504013024 | 47 | 150 | 0.0 | 0.0 | 0.00 | 0.00 | 0.00 | 50 | 1019.7 |
| 20260504012503 | 48 | 150 | 0.0 | 0.0 | 0.00 | 0.00 | 0.00 | 49 | 1019.7 |
| 20260504012002 | 48 | 150 | 0.0 | 0.0 | 0.00 | 0.00 | 0.00 | 48 | 1019.6 |
| 20260504011503 | 49 | 85 | 0.0 | 0.0 | 0.00 | 0.00 | 0.00 | 46 | 1019.5 |
| 20260504011024 | 49 | 84 | 0.0 | 0.0 | 0.00 | 0.00 | 0.00 | 46 | 1019.5 |
| 20260504010502 | 49 | 84 | 0.0 | 0.0 | 0.00 | 0.00 | 0.00 | 45 | 1019.4 |
| 20260504005503 | 49 | 75 | 0.0 | 0.0 | 0.00 | 0.00 | 0.00 | 46 | 1019.3 |
| 20260504005004 | 49 | 75 | 0.0 | 0.0 | 0.00 | 0.00 | 0.00 | 46 | 1019.3 |
| 20260504004502 | 49 | 75 | 0.0 | 0.0 | 0.00 | 0.00 | 0.00 | 45 | 1019.2 |
| 20260504004003 | 49 | 75 | 0.0 | 0.0 | 0.00 | 0.00 | 0.00 | 46 | 1019.2 |
| 20260504003503 | 49 | 75 | 0.0 | 0.0 | 0.00 | 0.00 | 0.00 | 46 | 1019.2 |
| 20260504003002 | 50 | 75 | 0.0 | 0.0 | 0.00 | 0.00 | 0.00 | 45 | 1019.2 |
| 20260504002503 | 50 | 75 | 0.0 | 0.0 | 0.00 | 0.00 | 0.00 | 44 | 1019.1 |
| 20260504002003 | 50 | 75 | 0.0 | 0.0 | 0.00 | 0.00 | 0.00 | 44 | 1018.9 |
| 20260504001502 | 50 | 64 | 0.0 | 0.0 | 0.00 | 0.00 | 0.00 | 45 | 1019.0 |
| 20260504001003 | 50 | 61 | 0.0 | 0.0 | 0.00 | 0.00 | 0.00 | 44 | 1019.2 |
| 20260504000524 | 50 | 63 | 0.0 | 0.0 | 0.00 | 0.00 | 0.00 | 46 | 1019.2 |
| 20260504000002 | 50 | 63 | 0.0 | 0.0 | 0.00 | 0.00 | 0.00 | 44 | 1019.3 |
| 20260503235503 | 51 | 63 | 0.0 | 0.0 | 0.00 | 0.00 | 0.00 | 45 | 1019.2 |
| 20260503235003 | 51 | 63 | 0.0 | 0.0 | 0.00 | 0.00 | 0.00 | 45 | 1019.2 |
| 20260503234548 | 52 | 62 | 0.0 | 0.0 | 0.00 | 0.00 | 0.00 | 45 | 1019.2 |
| 20260503234003 | 52 | 62 | 0.0 | 0.0 | 0.00 | 0.00 | 0.00 | 45 | 1019.1 |
| 20260503233524 | 52 | 63 | 0.0 | 0.0 | 0.00 | 0.00 | 0.00 | 43 | 1019.1 |
| 20260503233002 | 52 | 200 | 0.0 | 0.0 | 0.00 | 0.00 | 0.00 | 41 | 1019.1 |
| 20260503232524 | 53 | 5 | 0.0 | 0.0 | 0.00 | 0.00 | 0.00 | 40 | 1019.1 |
| 20260503232003 | 53 | 355 | 0.0 | 0.0 | 0.00 | 0.00 | 0.00 | 39 | 1019.0 |
| 20260503231503 | 53 | 355 | 0.0 | 0.0 | 0.00 | 0.00 | 0.00 | 41 | 1019.0 |
| 20260503231003 | 54 | 355 | 0.0 | 0.0 | 0.00 | 0.00 | 0.00 | 42 | 1019.0 |
| 20260503230503 | 54 | 48 | 0.0 | 4.0 | 0.00 | 0.00 | 0.00 | 41 | 1019.1 |
| 20260503230003 | 54 | 28 | 0.0 | 4.0 | 0.00 | 0.00 | 0.00 | 38 | 1019.0 |
| 20260503225524 | 55 | 61 | 0.0 | 4.0 | 0.00 | 0.00 | 0.00 | 37 | 1018.9 |
| 20260503225003 | 55 | 181 | 0.0 | 10.0 | 0.00 | 0.00 | 0.00 | 36 | 1019.0 |
| 20260503224502 | 55 | 315 | 1.0 | 10.0 | 0.00 | 0.00 | 0.00 | 35 | 1019.0 |
| 20260503224003 | 55 | 44 | 0.0 | 2.0 | 0.00 | 0.00 | 0.00 | 38 | 1019.1 |
| 20260503223502 | 55 | 42 | 0.0 | 0.0 | 0.00 | 0.00 | 0.00 | 35 | 1019.2 |
| 20260503223003 | 55 | 347 | 0.0 | 0.0 | 0.00 | 0.00 | 0.00 | 34 | 1019.1 |
| 20260503222503 | 55 | 157 | 0.0 | 0.0 | 0.00 | 0.00 | 0.00 | 34 | 1019.0 |
| 20260503222002 | 55 | 80 | 0.0 | 0.0 | 0.00 | 0.00 | 0.00 | 33 | 1019.2 |
| 20260503221524 | 55 | 21 | 0.0 | 0.0 | 0.00 | 0.00 | 0.00 | 34 | 1019.2 |
| 20260503221003 | 55 | 28 | 0.0 | 0.0 | 0.00 | 0.00 | 0.00 | 36 | 1019.3 |
| 20260503220503 | 55 | 56 | 0.0 | 0.0 | 0.00 | 0.00 | 0.00 | 35 | 1019.2 |
| 20260503220003 | 55 | 91 | 0.0 | 0.0 | 0.00 | 0.00 | 0.00 | 35 | 1019.3 |
| 20260503215503 | 56 | 33 | 0.0 | 0.0 | 0.00 | 0.00 | 0.00 | 33 | 1019.3 |
| 20260503215003 | 56 | 295 | 0.0 | 0.0 | 0.00 | 0.00 | 0.00 | 31 | 1019.3 |
| 20260503214503 | 56 | 295 | 0.0 | 0.0 | 0.00 | 0.00 | 0.00 | 31 | 1019.3 |
| 20260503214003 | 56 | 274 | 0.0 | 0.0 | 0.00 | 0.00 | 0.00 | 31 | 1019.4 |
| 20260503213503 | 56 | 139 | 0.0 | 7.0 | 0.00 | 0.00 | 0.00 | 30 | 1019.4 |
| 20260503213003 | 57 | 196 | 0.0 | 7.0 | 0.00 | 0.00 | 0.00 | 31 | 1019.5 |
| 20260503212524 | 57 | 194 | 0.0 | 0.0 | 0.00 | 0.00 | 0.00 | 32 | 1019.4 |
| 20260503212003 | 57 | 32 | 0.0 | 1.0 | 0.00 | 0.00 | 0.00 | 35 | 1019.3 |
| 20260503211502 | 57 | 34 | 0.0 | 1.0 | 0.00 | 0.00 | 0.00 | 33 | 1019.4 |
| 20260503211003 | 57 | 344 | 0.0 | 1.0 | 0.00 | 0.00 | 0.00 | 33 | 1019.4 |
| 20260503210503 | 57 | 42 | 0.0 | 1.0 | 0.00 | 0.00 | 0.00 | 32 | 1019.4 |
| 20260503210003 | 57 | 5 | 0.0 | 0.0 | 0.00 | 0.00 | 0.00 | 33 | 1019.4 |
| 20260503205503 | 57 | 9 | 0.0 | 0.0 | 0.00 | 0.00 | 0.00 | 32 | 1019.4 |
| 20260503205003 | 57 | 24 | 0.0 | 1.0 | 0.00 | 0.00 | 0.00 | 33 | 1019.4 |
| 20260503204502 | 58 | 51 | 0.0 | 1.0 | 0.00 | 0.00 | 0.00 | 32 | 1019.4 |
| 20260503204003 | 58 | 16 | 0.0 | 3.0 | 0.00 | 0.00 | 0.00 | 35 | 1019.6 |
| 20260503203503 | 58 | 38 | 0.0 | 3.0 | 0.00 | 0.00 | 0.00 | 35 | 1019.7 |
| 20260503203003 | 57 | 360 | 0.0 | 1.0 | 0.00 | 0.00 | 0.00 | 32 | 1019.8 |
| 20260503202502 | 57 | 90 | 0.0 | 1.0 | 0.00 | 0.00 | 0.00 | 37 | 1019.9 |
| 20260503202003 | 58 | 41 | 0.0 | 1.0 | 0.00 | 0.00 | 0.00 | 33 | 1019.9 |
| 20260503201524 | 58 | 355 | 0.0 | 1.0 | 0.00 | 0.00 | 0.00 | 30 | 1019.9 |
| 20260503201002 | 58 | 326 | 0.0 | 1.0 | 0.00 | 0.00 | 0.00 | 34 | 1020.0 |
| 20260503200503 | 58 | 19 | 0.0 | 0.0 | 0.00 | 0.00 | 0.00 | 32 | 1020.1 |
| 20260503200003 | 58 | 5 | 0.0 | 0.0 | 0.00 | 0.00 | 0.00 | 33 | 1020.0 |
| 20260503195503 | 57 | 32 | 0.0 | 4.0 | 0.00 | 0.00 | 0.00 | 32 | 1019.9 |
| 20260503195003 | 57 | 78 | 0.0 | 4.0 | 0.00 | 0.00 | 0.00 | 31 | 1020.2 |
| 20260503194503 | 57 | 48 | 0.0 | 2.0 | 0.00 | 0.00 | 0.00 | 33 | 1020.3 |
| 20260503194002 | 57 | 32 | 0.0 | 1.0 | 0.00 | 0.00 | 0.00 | 33 | 1020.4 |
| 20260503193503 | 58 | 97 | 0.0 | 2.0 | 0.00 | 0.00 | 0.00 | 33 | 1020.6 |
| 20260503193024 | 57 | 248 | 0.0 | 2.0 | 0.00 | 0.00 | 0.00 | 34 | 1020.6 |
| 20260503192545 | 57 | 6 | 0.0 | 1.0 | 0.00 | 0.00 | 0.00 | 33 | 1020.6 |
| 20260503192003 | 57 | 330 | 0.0 | 1.0 | 0.00 | 0.00 | 0.00 | 34 | 1020.7 |
| 20260503191503 | 57 | 31 | 0.0 | 5.0 | 0.00 | 0.00 | 0.00 | 34 | 1020.6 |
| 20260503191024 | 57 | 42 | 0.0 | 5.0 | 0.00 | 0.00 | 0.00 | 33 | 1020.7 |
| 20260503190503 | 57 | 31 | 0.0 | 3.0 | 0.00 | 0.00 | 0.00 | 36 | 1020.9 |
| 20260503190003 | 57 | 82 | 0.0 | 3.0 | 0.00 | 0.00 | 0.00 | 37 | 1020.9 |
| 20260503185503 | 57 | 344 | 0.0 | 3.0 | 0.00 | 0.00 | 0.00 | 36 | 1020.9 |
| 20260503185003 | 57 | 359 | 0.0 | 3.0 | 0.00 | 0.00 | 0.00 | 38 | 1020.9 |
| 20260503184503 | 56 | 34 | 0.0 | 3.0 | 0.00 | 0.00 | 0.00 | 38 | 1021.1 |
| 20260503184003 | 56 | 47 | 0.0 | 4.0 | 0.00 | 0.00 | 0.00 | 35 | 1021.3 |
| 20260503183504 | 56 | 304 | 0.0 | 14.0 | 0.00 | 0.00 | 0.00 | 36 | 1021.2 |
| 20260503183003 | 56 | 350 | 0.0 | 14.0 | 0.00 | 0.00 | 0.00 | 36 | 1021.3 |
| 20260503182503 | 56 | 50 | 0.0 | 3.0 | 0.00 | 0.00 | 0.00 | 36 | 1021.4 |
| 20260503182003 | 55 | 352 | 0.0 | 2.0 | 0.00 | 0.00 | 0.00 | 38 | 1021.5 |
| 20260503181504 | 55 | 47 | 0.0 | 1.0 | 0.00 | 0.00 | 0.00 | 37 | 1021.8 |
| 20260503181003 | 56 | 326 | 0.0 | 2.0 | 0.00 | 0.00 | 0.00 | 38 | 1021.8 |
| 20260503180502 | 55 | 41 | 0.0 | 2.0 | 0.00 | 0.00 | 0.00 | 37 | 1021.8 |
| 20260503180003 | 55 | 331 | 0.0 | 1.0 | 0.00 | 0.00 | 0.00 | 41 | 1021.9 |
| 20260503175524 | 55 | 65 | 0.0 | 7.0 | 0.00 | 0.00 | 0.00 | 42 | 1022.0 |
| 20260503175003 | 54 | 294 | 0.0 | 7.0 | 0.00 | 0.00 | 0.00 | 38 | 1022.0 |
| 20260503174502 | 54 | 43 | 0.0 | 2.0 | 0.00 | 0.00 | 0.00 | 42 | 1021.9 |
| 20260503174003 | 53 | 51 | 0.0 | 1.0 | 0.00 | 0.00 | 0.00 | 42 | 1021.9 |
| 20260503173503 | 53 | 222 | 0.0 | 2.0 | 0.00 | 0.00 | 0.00 | 41 | 1022.0 |
| 20260503173003 | 53 | 330 | 0.0 | 2.0 | 0.00 | 0.00 | 0.00 | 36 | 1022.1 |
| 20260503172502 | 53 | 339 | 0.0 | 0.0 | 0.00 | 0.00 | 0.00 | 45 | 1022.1 |
| 20260503172024 | 53 | 302 | 0.0 | 1.0 | 0.00 | 0.00 | 0.00 | 38 | 1022.2 |
| 20260503171524 | 53 | 12 | 0.0 | 1.0 | 0.00 | 0.00 | 0.00 | 42 | 1022.3 |
| 20260503171003 | 53 | 323 | 0.0 | 2.0 | 0.00 | 0.00 | 0.00 | 43 | 1022.5 |
| 20260503170503 | 53 | 5 | 0.0 | 2.0 | 0.00 | 0.00 | 0.00 | 40 | 1022.5 |
| 20260503150503 | 48 | 303 | 0.0 | 5.0 | 0.00 | 0.00 | 0.00 | 47 | 1023.2 |
| 20260503131024 | 44 | 29 | 0.0 | 0.0 | 0.00 | 0.00 | 0.00 | 58 | 1023.1 |
| 20260503130503 | 44 | 334 | 0.0 | 0.0 | 0.00 | 0.00 | 0.00 | 61 | 1023.1 |
| 20260503110524 | 34 | 67 | 0.0 | 0.0 | 0.00 | 0.00 | 0.00 | 77 | 1021.6 |
| 20260503090503 | 34 | 227 | 0.0 | 0.0 | 0.00 | 0.00 | 0.00 | 79 | 1020.2 |